When you browse on this site, cookies collect data to enhance your experience and personalize the content and advertising you see.
Visit our Privacy Policy to learn more. By continuing to use the site, you agree to this use of cookies and data.
  • In Österreich
  • Länderverzeichnis
  • Für 7 Tage
  • Wassertemperatur
  • Wetterkarte
  • News
  • Widgets
  • user-avatar
    Anmelden

    Stündliche Wetter Waris Aliganj

    Heute, 31 Mai, Sonntag

    Zeit Temperatur Niederschläge Wind Luftdruck Luftfeuchtigkeit
    00:00 +34°C° 0 mm 1 m/S 747 mmHg 43%
    01:00 +34°C° 0 mm 1 m/S 747 mmHg 44%
    02:00 +35°C° 0 mm 2 m/S 747 mmHg 44%
    03:00 +35°C° 0 mm 2 m/S 747 mmHg 45%
    04:00 +34°C° 0 mm 2 m/S 747 mmHg 46%
    05:00 +34°C° 0 mm 2 m/S 747 mmHg 48%
    06:00 +32°C° 0 mm 2 m/S 748 mmHg 55%
    07:00 +35°C° 0 mm 2 m/S 748 mmHg 49%
    08:00 +36°C° 0 mm 3 m/S 748 mmHg 43%
    09:00 +38°C° 0 mm 3 m/S 749 mmHg 37%
    10:00 +39°C° 0 mm 3 m/S 748 mmHg 34%
    11:00 +40°C° 0 mm 2 m/S 748 mmHg 31%
    12:00 +41°C° 0 mm 2 m/S 748 mmHg 30%
    13:00 +42°C° 0.1 mm 2 m/S 747 mmHg 28%
    14:00 +43°C° 0.1 mm 2 m/S 746 mmHg 25%
    15:00 +45°C° 0.1 mm 2 m/S 745 mmHg 23%
    16:00 +44°C° 0 mm 3 m/S 745 mmHg 26%
    17:00 +43°C° 0 mm 3 m/S 745 mmHg 28%
    18:00 +40°C° 0 mm 6 m/S 746 mmHg 37%
    19:00 +38°C° 1.7 mm 6 m/S 746 mmHg 47%
    20:00 +34°C° 1.7 mm 6 m/S 746 mmHg 57%
    21:00 +32°C° 1.7 mm 6 m/S 746 mmHg 67%
    22:00 +32°C° 0.2 mm 5 m/S 747 mmHg 64%
    23:00 +33°C° 0.2 mm 5 m/S 747 mmHg 61%

    Morgen, 1 Juni, Montag

    Zeit Temperatur Niederschläge Wind Luftdruck Luftfeuchtigkeit
    00:00 +33°C° 0.2 mm 4 m/S 747 mmHg 57%
    01:00 +33°C° 0 mm 3 m/S 747 mmHg 58%
    02:00 +32°C° 0 mm 2 m/S 747 mmHg 59%
    03:00 +32°C° 0 mm 1 m/S 747 mmHg 59%
    04:00 +32°C° 0.1 mm 1 m/S 747 mmHg 60%
    05:00 +32°C° 0.1 mm 2 m/S 747 mmHg 61%
    06:00 +31°C° 0.1 mm 2 m/S 747 mmHg 62%
    07:00 +34°C° 0 mm 3 m/S 747 mmHg 58%
    08:00 +35°C° 0 mm 3 m/S 747 mmHg 53%
    09:00 +37°C° 0 mm 3 m/S 747 mmHg 48%
    10:00 +38°C° 0 mm 2 m/S 747 mmHg 43%
    11:00 +40°C° 0 mm 2 m/S 747 mmHg 37%
    12:00 +41°C° 0 mm 2 m/S 747 mmHg 32%
    13:00 +42°C° 0 mm 2 m/S 746 mmHg 29%
    14:00 +43°C° 0 mm 2 m/S 745 mmHg 26%
    15:00 +45°C° 0 mm 3 m/S 744 mmHg 23%
    16:00 +44°C° 0 mm 3 m/S 744 mmHg 23%
    17:00 +44°C° 0 mm 3 m/S 743 mmHg 24%
    18:00 +43°C° 0 mm 4 m/S 743 mmHg 25%
    19:00 +42°C° 0 mm 3 m/S 743 mmHg 28%
    20:00 +40°C° 0 mm 2 m/S 744 mmHg 30%
    21:00 +39°C° 0 mm 1 m/S 744 mmHg 32%
    22:00 +37°C° 0 mm 1 m/S 744 mmHg 33%
    23:00 +37°C° 0 mm 1 m/S 745 mmHg 33%

    übermorgen, 2 Juni, Dienstag

    Zeit Temperatur Niederschläge Wind Luftdruck Luftfeuchtigkeit
    00:00 +37°C° 0 mm 1 m/S 745 mmHg 34%
    01:00 +36°C° 0 mm 1 m/S 745 mmHg 35%
    02:00 +36°C° 0 mm 1 m/S 744 mmHg 37%
    03:00 +35°C° 0 mm 1 m/S 744 mmHg 38%
    04:00 +35°C° 0 mm 1 m/S 744 mmHg 39%
    05:00 +35°C° 0 mm 1 m/S 745 mmHg 39%
    06:00 +34°C° 0 mm 1 m/S 745 mmHg 39%
    07:00 +37°C° 0 mm 2 m/S 745 mmHg 35%
    08:00 +38°C° 0 mm 2 m/S 746 mmHg 31%
    09:00 +40°C° 0 mm 3 m/S 746 mmHg 27%
    10:00 +42°C° 0 mm 3 m/S 746 mmHg 25%
    11:00 +43°C° 0 mm 3 m/S 746 mmHg 23%
    12:00 +44°C° 0 mm 4 m/S 746 mmHg 20%
    13:00 +45°C° 0 mm 4 m/S 745 mmHg 19%
    14:00 +45°C° 0 mm 4 m/S 744 mmHg 19%
    15:00 +46°C° 0 mm 5 m/S 744 mmHg 18%
    16:00 +46°C° 0 mm 5 m/S 743 mmHg 19%
    17:00 +45°C° 0 mm 6 m/S 743 mmHg 19%
    18:00 +44°C° 0 mm 6 m/S 742 mmHg 20%
    19:00 +42°C° 0 mm 5 m/S 743 mmHg 22%
    20:00 +41°C° 0 mm 4 m/S 743 mmHg 23%
    21:00 +39°C° 0 mm 3 m/S 744 mmHg 25%
    22:00 +38°C° 0 mm 3 m/S 744 mmHg 27%
    23:00 +38°C° 0 mm 3 m/S 744 mmHg 30%

    3 Juni, Mittwoch

    Zeit Temperatur Niederschläge Wind Luftdruck Luftfeuchtigkeit
    00:00 +37°C° 0 mm 3 m/S 744 mmHg 32%
    01:00 +37°C° 0 mm 3 m/S 744 mmHg 31%
    02:00 +37°C° 0 mm 3 m/S 744 mmHg 29%
    03:00 +37°C° 0 mm 3 m/S 744 mmHg 27%
    04:00 +37°C° 0 mm 3 m/S 744 mmHg 29%
    05:00 +36°C° 0 mm 3 m/S 745 mmHg 30%
    06:00 +36°C° 0 mm 3 m/S 745 mmHg 32%
    07:00 +36°C° 0 mm 3 m/S 746 mmHg 32%
    08:00 +36°C° 0 mm 3 m/S 746 mmHg 32%
    09:00 +36°C° 0 mm 4 m/S 747 mmHg 33%
    10:00 +37°C° 0 mm 4 m/S 747 mmHg 31%
    11:00 +38°C° 0 mm 4 m/S 747 mmHg 29%
    12:00 +41°C° 0 mm 4 m/S 746 mmHg 27%
    13:00 +41°C° 0 mm 5 m/S 746 mmHg 26%
    14:00 +41°C° 0 mm 6 m/S 746 mmHg 26%
    15:00 +41°C° 0 mm 7 m/S 745 mmHg 26%
    16:00 +39°C° 0 mm 7 m/S 745 mmHg 28%
    17:00 +38°C° 0 mm 6 m/S 744 mmHg 30%
    18:00 +36°C° 0 mm 6 m/S 744 mmHg 33%
    19:00 +36°C° 0 mm 5 m/S 744 mmHg 35%
    20:00 +35°C° 0 mm 4 m/S 745 mmHg 36%
    21:00 +34°C° 0 mm 4 m/S 745 mmHg 38%
    22:00 +34°C° 0 mm 3 m/S 745 mmHg 40%
    23:00 +34°C° 0 mm 3 m/S 745 mmHg 42%

    4 Juni, Donnerstag

    Zeit Temperatur Niederschläge Wind Luftdruck Luftfeuchtigkeit
    00:00 +33°C° 0 mm 3 m/S 746 mmHg 44%
    01:00 +33°C° 0 mm 3 m/S 746 mmHg 45%
    02:00 +33°C° 0 mm 3 m/S 745 mmHg 46%
    03:00 +33°C° 0 mm 3 m/S 745 mmHg 47%
    04:00 +33°C° 0 mm 3 m/S 746 mmHg 47%
    05:00 +31°C° 0 mm 2 m/S 746 mmHg 48%
    06:00 +31°C° 0 mm 1 m/S 746 mmHg 48%
    07:00 +32°C° 0 mm 2 m/S 746 mmHg 45%
    08:00 +35°C° 0 mm 2 m/S 747 mmHg 42%
    09:00 +36°C° 0 mm 2 m/S 747 mmHg 40%
    10:00 +37°C° 0 mm 2 m/S 747 mmHg 36%
    11:00 +39°C° 0 mm 2 m/S 747 mmHg 32%
    12:00 +41°C° 0 mm 1 m/S 746 mmHg 28%
    13:00 +41°C° 0 mm 1 m/S 745 mmHg 28%
    14:00 +41°C° 0 mm 2 m/S 745 mmHg 27%
    15:00 +42°C° 0 mm 2 m/S 744 mmHg 26%
    16:00 +41°C° 0.1 mm 2 m/S 743 mmHg 28%
    17:00 +41°C° 0.1 mm 2 m/S 743 mmHg 29%
    18:00 +40°C° 0.1 mm 3 m/S 742 mmHg 31%
    19:00 +39°C° 0.1 mm 3 m/S 743 mmHg 32%
    20:00 +39°C° 0.1 mm 3 m/S 743 mmHg 34%
    21:00 +38°C° 0.1 mm 3 m/S 744 mmHg 36%
    22:00 +37°C° 0.1 mm 3 m/S 744 mmHg 37%
    23:00 +37°C° 0.1 mm 3 m/S 744 mmHg 38%

    5 Juni, Freitag

    Zeit Temperatur Niederschläge Wind Luftdruck Luftfeuchtigkeit
    00:00 +36°C° 0.1 mm 3 m/S 744 mmHg 40%
    01:00 +36°C° 0.1 mm 3 m/S 744 mmHg 41%
    02:00 +35°C° 0.1 mm 3 m/S 744 mmHg 43%
    03:00 +35°C° 0.1 mm 3 m/S 743 mmHg 45%
    04:00 +34°C° 0 mm 3 m/S 744 mmHg 46%
    05:00 +34°C° 0 mm 3 m/S 744 mmHg 47%
    06:00 +34°C° 0 mm 3 m/S 744 mmHg 48%
    07:00 +35°C° 0 mm 3 m/S 744 mmHg 45%
    08:00 +36°C° 0 mm 2 m/S 745 mmHg 42%
    09:00 +38°C° 0 mm 2 m/S 745 mmHg 39%
    10:00 +39°C° 0 mm 2 m/S 745 mmHg 35%
    11:00 +41°C° 0 mm 2 m/S 745 mmHg 31%
    12:00 +43°C° 0 mm 2 m/S 745 mmHg 26%
    13:00 +43°C° 0 mm 2 m/S 744 mmHg 26%
    14:00 +43°C° 0 mm 2 m/S 743 mmHg 25%
    15:00 +43°C° 0 mm 2 m/S 742 mmHg 24%
    16:00 +43°C° 0 mm 2 m/S 742 mmHg 25%
    17:00 +43°C° 0 mm 2 m/S 742 mmHg 25%
    18:00 +42°C° 0 mm 2 m/S 741 mmHg 26%
    19:00 +42°C° 0 mm 2 m/S 741 mmHg 27%
    20:00 +41°C° 0 mm 2 m/S 742 mmHg 28%
    21:00 +40°C° 0 mm 3 m/S 742 mmHg 29%
    22:00 +40°C° 0 mm 3 m/S 742 mmHg 30%
    23:00 +40°C° 0 mm 3 m/S 742 mmHg 30%
    Mehr zeigen